Location: Castrojimeno
(41.3966°N, 3.8473°W)
Time: 08:33:50
(UTC+00:00)

Ariane Rocket - Pass Details

Date: 15 May 2026
Orbit: 755 x 763 km, 98.4° (Epoch: 5 June)

Event Time Altitude Azimuth Distance (km) Brightness Sun altitude
Exits shadow 20:59:02 20° 107° (ESE) 1,718 4.3 -14.9°
Maximum altitude 21:01:21 28° 66° (ENE) 1,406 4.2 -15.2°
Drops below altitude 10° 21:05:36 10° 9° (N) 2,303 6.0 -15.8°
Sets 21:08:11 0° 358° (N) 3,235 7.0 -16.1°
